#timestamp,LO_Frequency,Hit,StdDev 
1615723215.5,286046999.8,N
1615723235.3,286047000.5,N
1615723255.1,286047003.8,N
1615723275.9,286047003.7,N
1615723295.7,286047001.3,N
1615723315.6,286047000.1,N
1615723335.4,286047002.3,N
1615723355.2,286047000.1,N
1615723375.1,286047000.8,N
1615723376.0,286047000.8,N
1615723395.8,286047000.9,N
1615723415.6,286046998.6,N
1615723435.5,286046998.9,N
1615723455.3,286046999.4,N
1615723475.2,286046999.0,N
1615723495.9,286046999.6,N
1615723515.7,286046996.7,N
1615723535.6,286046998.9,N
1615723555.4,286046997.0,N
1615723575.2,286046996.8,N
1615723595.1,286046996.5,N
1615723596.0,286046996.5,N
1615723615.8,286046997.8,N
1615723635.7,286046997.1,N
1615723655.5,286046997.7,N
1615723675.3,286046996.7,N
1615723695.2,286046996.8,N
1615723715.0,286046997.2,N
1615723715.9,286046997.2,N
1615723735.7,286046995.0,N
1615723755.6,286046996.2,N
1615723775.4,286046996.3,N
1615723795.3,286046995.6,N
1615723815.1,286046995.6,N
1615723816.0,286046995.6,N
1615723835.8,286046995.2,N
1615723855.7,286046995.1,N
1615723875.5,286046996.2,N
1615723895.3,286046995.6,N
1615723915.2,286046995.9,N
1615723935.0,286046995.7,N
1615723935.9,286046995.7,Y
1615723955.8,286046999.8,P
1615723975.6,286046999.8,N
1615723995.4,286047002.2,N
1615724015.3,286047002.8,N
1615724035.1,286047001.7,N
1615724055.8,286047002.3,N
1615724075.7,286047002.5,N
1615724095.5,286046999.7,N
1615724115.4,286047002.6,N
1615724135.2,286047000.2,N
1615724155.0,286047000.3,N
1615724155.9,286047000.3,N
1615724175.8,286047001.6,N
1615724195.6,286047002.2,N
1615724215.4,286047000.0,N
1615724235.3,286046998.6,N
1615724255.1,286047001.1,N
1615724275.9,286046999.0,N
1615724295.7,286046999.5,N
1615724315.5,286046996.5,N
1615724335.4,286046998.1,N
1615724355.2,286047002.4,N
1615724375.0,286047001.6,N
1615724375.9,286047001.6,N
1615724395.8,286047001.8,N
1615724415.6,286047002.1,N
1615724435.5,286047002.8,N
1615724455.3,286047002.4,N
1615724475.1,286047002.8,N
1615724495.9,286047002.3,N
1615724515.7,286047002.6,N
1615724535.5,286047001.5,N
1615724555.4,286047002.2,N
1615724575.2,286047002.1,N
1615724595.0,286047002.1,N
1615724595.9,286047002.1,N
1615724615.8,286046999.8,N
1615724635.6,286047002.6,N
1615724655.5,286047002.6,N
1615724675.3,286047000.6,N
1615724695.1,286047001.6,N
1615724715.9,286047002.7,N
1615724735.7,286047001.6,N
1615724755.5,286047003.7,N
1615724775.4,286047004.1,N
1615724795.2,286047001.8,N
1615724815.1,286047002.0,N
1615724816.0,286047002.0,N
1615724835.8,286047004.4,N
1615724855.6,286047002.3,N
1615724875.5,286046999.9,N
1615724895.3,286047000.3,N
1615724915.1,286046998.2,N
1615724935.9,286047000.9,N
1615724955.7,286046998.5,N
1615724975.6,286047002.4,N
1615724995.4,286047002.5,N
1615725015.2,286047001.9,N
1615725035.1,286047002.7,N
1615725036.0,286047002.7,N
1615725055.8,286047002.5,N
1615725075.6,286047002.6,N
1615725095.5,286047001.9,N
1615725115.3,286047003.2,N
1615725135.2,286047003.2,N
1615725155.9,286047004.7,Y
1615725175.7,286047001.5,P
1615725195.6,286047001.5,P
1615725215.4,286047002.0,P
1615725235.2,286047002.8,Y
1615725255.1,286046998.1,P
1615725256.0,286046998.1,N
1615725275.8,286046998.2,N
1615725295.7,286046999.5,N
1615725315.5,286046999.5,N
1615725335.3,286046999.2,N
1615725355.2,286046996.9,N
1615725375.0,286046997.7,N
1615725375.9,286046997.7,N
1615725395.7,286046996.5,N
1615725415.6,286046997.0,N
1615725435.4,286046997.6,N
1615725455.3,286046995.6,Y
1615725475.1,286046995.4,P
1615725476.0,286046995.4,P
1615725495.8,286046995.3,P
1615725515.7,286046993.6,Y
1615725535.5,286046996.6,P
1615725555.3,286046999.6,N
1615725575.2,286046996.8,N
1615725595.0,286046998.9,N
1615725595.9,286046998.9,N
1615725615.8,286046999.2,N
1615725635.6,286046996.6,N
1615725655.4,286046997.3,N
1615725675.3,286046997.7,N
1615725695.1,286046996.7,N
1615725715.8,286046996.8,N
1615725735.7,286046997.3,N
1615725755.5,286046996.8,N
1615725775.4,286046996.7,Y
1615725795.2,286047000.7,P
1615725815.0,286046998.5,N
1615725815.9,286046998.5,N
1615725835.8,286046998.9,N
1615725855.6,286046996.6,Y
1615725875.5,286046998.5,P
1615725895.3,286047000.9,P
1615725915.1,286047000.9,N
1615725935.9,286046998.1,N
1615725955.7,286047001.2,N
1615725975.5,286047000.9,N
1615725995.4,286047000.4,N
1615726015.2,286046998.1,N
1615726035.0,286047001.2,N
1615726036.0,286047011.9,Y
1615726055.8,286046998.2,P
1615726075.6,286046998.2,N
1615726095.5,286047000.8,N
1615726115.3,286047000.8,N
1615726135.1,286046998.5,N
1615726155.9,286047001.2,N
1615726175.7,286047000.3,N
1615726195.5,286047001.0,N
1615726215.4,286047000.4,N
1615726235.2,286047000.8,N
1615726255.1,286047000.5,N
1615726256.0,286047000.5,N
1615726275.8,286047002.8,N
1615726295.6,286047002.5,N
1615726315.5,286047003.3,N
1615726335.3,286047003.2,N
1615726355.1,286047004.9,Y
1615726375.9,286047002.9,P
1615726395.7,286047003.4,P
1615726415.6,286047003.8,P
1615726435.4,286047002.9,N
1615726455.2,286047005.2,Y
1615726475.1,286047004.4,P
1615726476.0,286047004.4,P
1615726495.8,286047004.1,P
1615726515.7,286047006.0,Y
1615726535.5,286047000.5,P
1615726555.3,286047000.1,N
1615726575.2,286047001.0,N
1615726595.0,286047000.2,N
1615726595.9,286047000.2,N
1615726615.7,286047001.5,N
1615726635.6,286047002.5,N
1615726655.4,286047004.4,Y
1615726675.3,286047000.1,P
1615726695.1,286047002.4,P
1615726696.0,286047002.4,N
1615726715.8,286047002.8,N
1615726735.7,286047000.6,N
1615726755.5,286046998.2,N
1615726775.3,286047001.1,N
1615726795.2,286047001.1,N
